TimeCDT,TemperatureF,Dew PointF,Humidity,Sea Level PressureIn,VisibilityMPH,Wind Direction,Wind SpeedMPH,Gust SpeedMPH,PrecipitationIn,Events,Conditions,WindDirDegrees,DateUTC
12:10 AM,32.0,26.6,80,30.04,10.0,SW,3.5,-,N/A,,Clear,230,2013-10-27 05:10:00
12:31 AM,30.2,26.6,86,30.02,10.0,SSW,5.8,-,N/A,,Clear,210,2013-10-27 05:31:00
12:50 AM,30.2,26.6,86,30.02,10.0,SW,5.8,-,N/A,,Clear,220,2013-10-27 05:50:00
1:10 AM,30.2,26.6,86,30.02,10.0,SW,4.6,-,N/A,,Clear,220,2013-10-27 06:10:00
1:30 AM,30.2,26.6,86,30.01,10.0,SSW,3.5,-,N/A,,Clear,210,2013-10-27 06:30:00
1:50 AM,30.2,26.6,86,30.01,10.0,SW,3.5,-,N/A,,Clear,230,2013-10-27 06:50:00
2:10 AM,30.2,26.6,86,30.00,10.0,Calm,Calm,-,N/A,,Clear,0,2013-10-27 07:10:00
2:30 AM,28.4,26.6,93,29.99,10.0,Calm,Calm,-,N/A,,Clear,0,2013-10-27 07:30:00
2:50 AM,28.4,26.6,93,29.99,10.0,Calm,Calm,-,N/A,,Clear,0,2013-10-27 07:50:00
3:11 AM,28.4,24.8,86,29.99,10.0,Calm,Calm,-,N/A,,Clear,0,2013-10-27 08:11:00
3:30 AM,28.4,26.6,93,29.98,10.0,Calm,Calm,-,N/A,,Clear,0,2013-10-27 08:30:00
3:50 AM,28.4,24.8,86,29.96,10.0,Calm,Calm,-,N/A,,Clear,0,2013-10-27 08:50:00
4:10 AM,28.4,26.6,93,29.96,10.0,Calm,Calm,-,N/A,,Clear,0,2013-10-27 09:10:00
4:30 AM,28.4,26.6,93,29.95,10.0,Calm,Calm,-,N/A,,Clear,0,2013-10-27 09:30:00
4:50 AM,28.4,24.8,86,29.95,10.0,Calm,Calm,-,N/A,,Clear,0,2013-10-27 09:50:00
5:10 AM,28.4,26.6,93,29.95,10.0,Calm,Calm,-,N/A,,Clear,0,2013-10-27 10:10:00
5:31 AM,26.6,24.8,93,29.94,10.0,South,3.5,-,N/A,,Clear,190,2013-10-27 10:31:00
5:50 AM,28.4,26.6,93,29.94,10.0,South,3.5,-,N/A,,Clear,190,2013-10-27 10:50:00
6:11 AM,28.4,24.8,86,29.93,10.0,Calm,Calm,-,N/A,,Clear,0,2013-10-27 11:11:00
6:30 AM,28.4,24.8,86,29.92,10.0,Calm,Calm,-,N/A,,Clear,0,2013-10-27 11:30:00
6:50 AM,28.4,24.8,86,29.91,10.0,South,3.5,-,N/A,,Clear,180,2013-10-27 11:50:00
7:10 AM,26.6,24.8,93,29.90,10.0,South,3.5,-,N/A,,Clear,180,2013-10-27 12:10:00
7:31 AM,26.6,24.8,93,29.90,10.0,South,3.5,-,N/A,,Clear,190,2013-10-27 12:31:00
7:50 AM,26.6,24.8,93,29.89,10.0,Calm,Calm,-,N/A,,Clear,0,2013-10-27 12:50:00
8:11 AM,26.6,24.8,93,29.89,10.0,South,3.5,-,N/A,,Clear,170,2013-10-27 13:11:00
8:30 AM,30.2,26.6,86,29.88,10.0,South,5.8,-,N/A,,Clear,190,2013-10-27 13:30:00
8:50 AM,33.8,26.6,75,29.88,10.0,Calm,Calm,-,N/A,,Clear,0,2013-10-27 13:50:00
9:10 AM,35.6,28.4,75,29.87,10.0,SSW,4.6,-,N/A,,Clear,200,2013-10-27 14:10:00
9:30 AM,37.4,28.4,70,29.87,10.0,SSW,4.6,-,N/A,,Clear,210,2013-10-27 14:30:00
9:50 AM,39.2,28.4,65,29.86,10.0,SW,4.6,-,N/A,,Clear,220,2013-10-27 14:50:00
10:10 AM,42.8,28.4,57,29.85,10.0,SSW,5.8,-,N/A,,Clear,210,2013-10-27 15:10:00
10:30 AM,44.6,28.4,53,29.84,10.0,SSW,8.1,16.1,N/A,,Clear,210,2013-10-27 15:30:00
10:50 AM,46.4,28.4,50,29.83,10.0,SSW,6.9,-,N/A,,Clear,200,2013-10-27 15:50:00
11:10 AM,46.4,28.4,50,29.83,10.0,SW,4.6,-,N/A,,Clear,220,2013-10-27 16:10:00
11:30 AM,50.0,30.2,47,29.83,10.0,SW,4.6,-,N/A,,Clear,230,2013-10-27 16:30:00
11:50 AM,51.8,30.2,44,29.84,10.0,WSW,10.4,-,N/A,,Clear,250,2013-10-27 16:50:00
12:10 PM,51.8,30.2,44,29.83,10.0,WSW,9.2,-,N/A,,Clear,240,2013-10-27 17:10:00
12:30 PM,53.6,30.2,41,29.83,10.0,WSW,6.9,-,N/A,,Clear,250,2013-10-27 17:30:00
12:51 PM,53.6,30.2,41,29.82,10.0,West,9.2,-,N/A,,Clear,260,2013-10-27 17:51:00
1:10 PM,53.6,30.2,41,29.82,10.0,West,8.1,-,N/A,,Clear,260,2013-10-27 18:10:00
1:30 PM,55.4,32.0,41,29.81,10.0,WSW,4.6,-,N/A,,Clear,240,2013-10-27 18:30:00
1:50 PM,55.4,30.2,38,29.81,10.0,West,6.9,-,N/A,,Clear,260,2013-10-27 18:50:00
2:10 PM,55.4,32.0,41,29.80,10.0,WSW,6.9,-,N/A,,Clear,250,2013-10-27 19:10:00
2:31 PM,55.4,32.0,41,29.81,10.0,WSW,3.5,-,N/A,,Clear,250,2013-10-27 19:31:00
2:50 PM,57.2,32.0,38,29.81,10.0,West,6.9,-,N/A,,Clear,270,2013-10-27 19:50:00
3:10 PM,57.2,32.0,38,29.81,10.0,WNW,8.1,-,N/A,,Clear,300,2013-10-27 20:10:00
3:30 PM,57.2,32.0,38,29.82,10.0,WNW,6.9,-,N/A,,Clear,290,2013-10-27 20:30:00
3:50 PM,57.2,32.0,38,29.83,10.0,NNW,6.9,-,N/A,,Clear,330,2013-10-27 20:50:00
4:10 PM,55.4,32.0,41,29.84,10.0,NW,4.6,-,N/A,,Clear,310,2013-10-27 21:10:00
4:30 PM,55.4,33.8,44,29.84,10.0,NNW,6.9,-,N/A,,Clear,330,2013-10-27 21:30:00
4:50 PM,55.4,33.8,44,29.86,10.0,North,3.5,-,N/A,,Clear,350,2013-10-27 21:50:00
5:10 PM,53.6,33.8,47,29.87,10.0,NNW,3.5,-,N/A,,Clear,330,2013-10-27 22:10:00
5:31 PM,53.6,33.8,47,29.88,10.0,North,3.5,-,N/A,,Clear,350,2013-10-27 22:31:00
5:50 PM,51.8,33.8,50,29.89,10.0,North,3.5,-,N/A,,Clear,350,2013-10-27 22:50:00
6:11 PM,44.6,32.0,61,29.90,10.0,North,3.5,-,N/A,,Clear,360,2013-10-27 23:11:00
6:30 PM,46.4,33.8,62,29.91,10.0,North,3.5,-,N/A,,Clear,360,2013-10-27 23:30:00
6:50 PM,46.4,33.8,62,29.92,10.0,North,3.5,-,N/A,,Clear,360,2013-10-27 23:50:00
7:10 PM,42.8,32.0,66,29.94,10.0,North,3.5,-,N/A,,Clear,10,2013-10-28 00:10:00
7:30 PM,46.4,33.8,62,29.95,10.0,North,9.2,-,N/A,,Clear,360,2013-10-28 00:30:00
7:50 PM,46.4,33.8,62,29.96,10.0,NNE,8.1,-,N/A,,Clear,20,2013-10-28 00:50:00
8:10 PM,44.6,33.8,66,29.98,10.0,North,6.9,-,N/A,,Clear,10,2013-10-28 01:10:00
8:30 PM,44.6,32.0,61,29.99,10.0,North,5.8,-,N/A,,Clear,10,2013-10-28 01:30:00
8:50 PM,44.6,32.0,61,30.00,10.0,North,6.9,-,N/A,,Clear,360,2013-10-28 01:50:00
9:10 PM,44.6,32.0,61,30.01,10.0,North,9.2,-,N/A,,Clear,10,2013-10-28 02:10:00
9:30 PM,42.8,32.0,66,30.03,10.0,North,10.4,-,N/A,,Clear,10,2013-10-28 02:30:00
9:50 PM,42.8,30.2,61,30.04,10.0,NNE,11.5,19.6,N/A,,Clear,20,2013-10-28 02:50:00
10:11 PM,42.8,30.2,61,30.06,10.0,NNE,10.4,19.6,N/A,,Clear,20,2013-10-28 03:11:00
10:30 PM,41.0,30.2,65,30.07,10.0,NNE,11.5,17.3,N/A,,Clear,30,2013-10-28 03:30:00
10:50 PM,41.0,30.2,65,30.08,10.0,NNE,10.4,18.4,N/A,,Clear,30,2013-10-28 03:50:00
11:10 PM,39.2,30.2,70,30.09,10.0,NNE,11.5,17.3,N/A,,Clear,30,2013-10-28 04:10:00
11:30 PM,39.2,30.2,70,30.10,10.0,NNE,12.7,18.4,N/A,,Clear,30,2013-10-28 04:30:00
11:51 PM,39.2,30.2,70,30.11,10.0,NNE,13.8,18.4,N/A,,Clear,30,2013-10-28 04:51:00